, CA

(GMT )
Point Mugu

Weather History for KNTD - August, 2012

Change the Weather History Date:

Thursday, August 23, 2012

  Actual Average Record
Temperature  
Mean Temperature 65 °F -  
Max Temperature 71 °F 70 °F 82 °F (1998)
Min Temperature 61 °F 56 °F 50 °F (2010)
Growing Degree Days 15 (Base 50)    
Moisture  
Dew Point 61 °F    
Average Humidity 92    
Maximum Humidity 100    
Minimum Humidity 78    
Precipitation  
Precipitation 0.00 in - - ()
Sea Level Pressure  
Sea Level Pressure 29.93 in    
Wind  
Wind Speed 7 mph (SSW)    
Max Wind Speed 12 mph    
Max Gust Speed -    
Visibility 6 miles    
Events      
Averages and records for this station are not official NWS values.
T = Trace of Precipitation, MM = Missing Value Source: NWS Daily Summary

Daily Weather History Graph

Daily Weather History Graph

Search for Another Location

Airport or City:

Trip Planner

Search our weather history database for the weather conditions in past years. The results will help you decide how hot, cold, wet, or windy it might be!

Date:

Astronomy

Aug. 23, 2012 Rise Set
Actual Time 6:24 AM PDT 7:33 PM PDT
Civil Twilight 5:58 AM PDT 7:59 PM PDT
Nautical Twilight 5:27 AM PDT 8:29 PM PDT
Astronomical Twilight 4:55 AM PDT 9:01 PM PDT
Moon 12:55 PM PDT 11:27 PM PDT
Length of Visible Light 14h 01m
Length of Day
13h 09m
Waxing Crescent, 41% of the Moon is Illuminated
Aug 23
Waxing Crescent
Aug 24
First Quarter
Aug 31
Full
Sep 8
Last Quarter
Sep 15
New

Hourly Weather History & Observations

Time (PDT) Temp. Dew Point Humidity Pressure Visibility Wind Dir Wind Speed Gust Speed Precip Events Conditions
12:54 AM 62.1 °F 61.0 °F 96% 29.94 in 10.0 mi SSE 9.2 mph - N/A   Overcast
1:54 AM 62.1 °F 61.0 °F 96% 29.93 in 10.0 mi SE 5.8 mph - N/A   Overcast
2:10 AM 62.6 °F 60.8 °F 94% 29.92 in 10.0 mi SSE 11.5 mph - N/A   Overcast
2:54 AM 62.1 °F 61.0 °F 96% 29.92 in 10.0 mi South 6.9 mph - N/A   Overcast
3:54 AM 61.0 °F 61.0 °F 100% 29.92 in 10.0 mi South 5.8 mph - N/A   Overcast
4:54 AM 61.0 °F 61.0 °F 100% 29.92 in 10.0 mi Variable 4.6 mph - N/A   Overcast
5:50 AM 62.6 °F 60.8 °F 94% 29.93 in 1.0 mi Variable 4.6 mph - 0.00 in   Drizzle
5:54 AM 62.1 °F 62.1 °F 100% 29.94 in 1.0 mi Variable 5.8 mph - 0.00 in   Light Drizzle
6:15 AM 62.6 °F 62.6 °F 100% 29.93 in 1.5 mi South 6.9 mph - 0.00 in   Light Drizzle
6:36 AM 62.6 °F 62.6 °F 100% 29.94 in 2.0 mi Variable 5.8 mph - 0.00 in   Overcast
6:54 AM 62.1 °F 62.1 °F 100% 29.94 in 2.0 mi Calm Calm - 0.00 in   Overcast
7:54 AM 63.0 °F 62.1 °F 97% 29.95 in 2.5 mi Variable 4.6 mph - N/A   Overcast
8:54 AM 64.0 °F 63.0 °F 96% 29.96 in 3.0 mi Variable 6.9 mph - N/A   Overcast
9:54 AM 64.9 °F 63.0 °F 93% 29.96 in 3.0 mi Variable 5.8 mph - N/A   Overcast
10:54 AM 68.0 °F 63.0 °F 84% 29.97 in 4.0 mi South 6.9 mph - N/A   Haze
11:54 AM 68.0 °F 62.1 °F 81% 29.96 in 4.0 mi West 8.1 mph - N/A   Haze
12:54 PM 69.1 °F 62.1 °F 78% 29.94 in 5.0 mi Variable 5.8 mph - N/A   Haze
1:54 PM 68.0 °F 61.0 °F 78% 29.94 in 7.0 mi SSW 8.1 mph - N/A   Haze
2:02 PM 68.0 °F 62.6 °F 83% 29.93 in 7.0 mi SSW 6.9 mph - N/A   Haze
2:54 PM 66.9 °F 62.1 °F 84% 29.92 in 8.0 mi Variable 6.9 mph - N/A   Overcast
3:54 PM 66.9 °F 62.1 °F 84% 29.90 in 6.0 mi West 8.1 mph - N/A   Mostly Cloudy
4:54 PM 66.0 °F 61.0 °F 84% 29.89 in 6.0 mi Variable 6.9 mph - N/A   Overcast
5:54 PM 64.0 °F 61.0 °F 90% 29.88 in 6.0 mi West 9.2 mph - N/A   Overcast
6:54 PM 63.0 °F 60.1 °F 90% 29.88 in 5.0 mi WNW 8.1 mph - N/A   Overcast
7:54 PM 62.1 °F 60.1 °F 93% 29.89 in 5.0 mi NW 5.8 mph - N/A   Overcast
8:54 PM 62.1 °F 60.1 °F 93% 29.90 in 5.0 mi East 6.9 mph - N/A   Overcast
9:54 PM 62.1 °F 60.1 °F 93% 29.91 in 3.0 mi Variable 5.8 mph - N/A   Overcast
10:54 PM 62.1 °F 61.0 °F 96% 29.93 in 3.0 mi Variable 5.8 mph - N/A   Overcast
11:54 PM 62.1 °F 60.1 °F 93% 29.93 in 10.0 mi South 5.8 mph - N/A   Overcast